FW3893 Weather Reports


time (UTC)temp
C
wind
direction
speed
KPH
gust
KPH
rain 1hr
cm
rain 24hr
cm
rain mn
cm
humidity
%
barometer
mb
20260507013840 10 0.0 0.0 0.00 0.00 0.00 82 1007.1
20260507012822 10 0.0 0.0 0.00 0.00 0.00 82 1007.1
20260507011824 10 0.0 0.0 0.00 0.00 0.00 81 1007.0
20260507010816 10 0.0 0.0 0.00 0.00 0.00 81 1007.0
20260507005818 10 0.0 0.0 0.00 0.00 0.00 82 1006.8
20260507004841 10 0.0 0.0 0.00 0.00 0.00 81 1006.8
20260507003822 10 0.0 0.0 0.00 0.00 0.00 81 1007.0
20260507002824 10 0.0 0.0 0.00 0.00 0.00 81 1007.0
20260507001836 10 0.0 0.0 0.00 0.00 0.00 81 1006.6
20260507000819 10 0.0 0.0 0.00 0.00 0.00 80 1006.6
20260506235822 10 0.0 0.0 0.00 0.00 0.00 80 1006.7
20260506234824 10 0.0 0.0 0.00 0.00 0.00 80 1006.7
20260506233816 10 0.0 0.0 0.00 0.00 0.00 81 1006.7
20260506232838 10 0.0 0.0 0.00 0.00 0.00 82 1006.7
20260506231840 10 0.0 0.0 0.00 0.00 0.00 82 1006.6
20260506230823 10 0.0 0.0 0.00 0.00 0.00 82 1006.6
20260506225825 10 0.0 0.0 0.00 0.00 0.00 82 1006.4
20260506224818 10 0.0 0.0 0.00 0.00 0.00 81 1006.3
20260506223821 10 0.0 0.0 0.00 0.00 0.00 80 1006.5
20260506222823 10 0.0 0.0 0.00 0.00 0.00 80 1006.5
20260506221815 10 0.0 0.0 0.00 0.00 0.00 79 1006.5
20260506220818 10 0.0 0.0 0.00 0.00 0.00 78 1006.5
20260506215840 11 0.0 0.0 0.00 0.00 0.00 79 1006.4
20260506214822 11 0.0 0.0 0.00 0.00 0.00 78 1006.4
20260506213824 11 0.0 0.0 0.00 0.00 0.00 77 1006.4
20260506212816 11 0.0 0.0 0.00 0.00 0.00 76 1006.5
20260506211818 11 0.0 0.0 0.00 0.00 0.00 75 1006.5
20260506210842 11 0.0 0.0 0.00 0.00 0.00 74 1006.5
20260506205825 12 0.0 0.0 0.00 0.00 0.00 72 1006.3
20260506204817 12 0.0 0.0 0.00 0.00 0.00 71 1006.3
20260506203839 13 0.0 0.0 0.00 0.00 0.00 67 1006.4
20260506202822 13 0.0 0.0 0.00 0.00 0.00 66 1006.4
20260506201823 13 0.0 0.0 0.00 0.00 0.00 66 1006.3
20260506200816 14 0.0 0.0 0.00 0.00 0.00 65 1006.3
20260506195818 14 0.0 0.0 0.00 0.00 0.00 64 1006.2
20260506194820 15 0.0 0.0 0.00 0.00 0.00 63 1006.2
20260506193823 15 0.0 0.0 0.00 0.00 0.00 61 1005.9
20260506192815 15 0.0 0.0 0.00 0.00 0.00 60 1005.9
20260506191817 15 0.0 0.0 0.00 0.00 0.00 60 1005.5
20260506190819 16 0.0 0.0 0.00 0.00 0.00 58 1005.5
20260506185821 16 0.0 0.0 0.00 0.00 0.00 56 1005.2
20260506184823 16 0.0 0.0 0.00 0.00 0.00 55 1005.2
20260506183845 16 0.0 0.0 0.00 0.00 0.00 54 1004.5
20260506182817 16 0.0 0.0 0.00 0.00 0.00 53 1004.5
20260506181839 17 0.0 0.0 0.00 0.00 0.00 51 1003.9
20260506180822 17 0.0 0.0 0.00 0.00 0.00 51 1003.9
20260506175823 17 0.0 0.0 0.00 0.00 0.00 50 1003.6
20260506174815 18 0.0 0.0 0.00 0.00 0.00 48 1003.6
20260506173817 18 0.0 0.0 0.00 0.00 0.00 48 1003.2
20260506172819 18 0.0 0.0 0.00 0.00 0.00 49 1003.2
20260506171821 19 0.0 0.0 0.00 0.00 0.00 48 1003.1
20260506170844 19 0.0 0.0 0.00 0.00 0.00 47 1003.1
20260506165816 19 0.0 0.0 0.00 0.00 0.00 45 1002.9
20260506164838 20 0.0 0.0 0.00 0.00 0.00 45 1002.9
20260506163820 20 0.0 0.0 0.00 0.00 0.00 46 1002.8
20260506162822 20 0.0 0.0 0.00 0.00 0.00 45 1002.8
20260506161824 20 0.0 0.0 0.00 0.00 0.00 45 1003.2
20260506160816 20 0.0 0.0 0.00 0.00 0.00 45 1003.2
20260506155818 20 0.0 0.0 0.00 0.00 0.00 44 1002.7
20260506154823 20 0.0 0.0 0.00 0.00 0.00 44 1002.7
20260506153824 21 0.0 0.0 0.00 0.00 0.00 47 1003.2
20260506152817 21 0.0 0.0 0.00 0.00 0.00 47 1003.2
20260506151820 21 0.0 0.0 0.00 0.00 0.00 46 1003.0
20260506150821 21 0.0 0.0 0.00 0.00 0.00 47 1003.0
20260506145824 21 0.0 0.0 0.00 0.00 0.00 47 1003.1
20260506144816 21 0.0 0.0 0.00 0.00 0.00 46 1003.1
20260506143819 21 0.0 0.0 0.00 0.00 0.00 49 1003.2
20260506142820 21 0.0 0.0 0.00 0.00 0.00 51 1003.2
20260506141842 21 0.0 0.0 0.00 0.00 0.00 49 1003.0
20260506140835 21 0.0 0.0 0.00 0.00 0.00 49 1003.0
20260506135837 21 0.0 0.0 0.00 0.00 0.00 51 1003.3
20260506134840 21 0.0 0.0 0.00 0.00 0.00 51 1003.3
20260506133843 21 0.0 0.0 0.00 0.00 0.00 49 1003.8
20260506132825 21 0.0 0.0 0.00 0.00 0.00 49 1003.8
20260506131817 21 0.0 0.0 0.00 0.00 0.00 49 1003.7
20260506130819 21 0.0 0.0 0.00 0.00 0.00 49 1003.7
20260506125820 21 0.0 0.0 0.00 0.00 0.00 53 1003.5
20260506124843 21 0.0 0.0 0.00 0.00 0.00 54 1003.5
20260506123815 21 0.0 0.0 0.00 0.00 0.00 54 1003.6
20260506122838 21 0.0 0.0 0.00 0.00 0.00 62 1003.6
20260506121821 21 0.0 0.0 0.00 0.00 0.00 67 1003.5
20260506120823 20 0.0 0.0 0.00 0.00 0.00 69 1003.5
20260506115816 20 0.0 0.0 0.00 0.00 0.00 74 1003.7
20260506114818 19 0.0 0.0 0.00 0.00 0.00 75 1003.7
20260506113821 18 0.0 0.0 0.00 0.00 0.00 76 1003.7
20260506112824 18 0.0 0.0 0.00 0.00 0.00 73 1003.7
20260506111816 18 0.0 0.0 0.00 0.00 0.00 80 1003.7
20260506110818 18 0.0 0.0 0.00 0.00 0.00 81 1003.7
20260506105821 18 0.0 0.0 0.00 0.00 0.00 84 1004.1
20260506104823 18 0.0 0.0 0.00 0.00 0.00 85 1004.1
20260506103815 17 0.0 0.0 0.00 0.00 0.00 87 1004.3
20260506102817 17 0.0 0.0 0.00 0.00 0.00 89 1004.3
20260506101839 16 0.0 0.0 0.00 0.00 0.00 90 1004.3
20260506100821 16 0.0 0.0 0.00 0.00 0.00 91 1004.3
20260506095823 15 0.0 0.0 0.00 0.00 0.00 91 1004.5
20260506094825 16 0.0 0.0 0.00 0.00 0.00 91 1004.5
20260506093817 15 0.0 0.0 0.00 0.00 0.00 90 1004.5
20260506092820 15 0.0 0.0 0.00 0.00 0.00 90 1004.5
20260506091822 15 0.0 0.0 0.00 0.00 0.00 90 1004.3
20260506090824 15 0.0 0.0 0.00 0.00 0.00 90 1004.3
20260506085815 15 0.0 0.0 0.00 0.00 0.00 90 1004.5
20260506084817 15 0.0 0.0 0.00 0.00 0.00 91 1004.5
20260506083819 15 0.0 0.0 0.00 0.00 0.00 91 1004.5
20260506082844 14 0.0 0.0 0.00 0.00 0.00 92 1004.5
20260506081836 14 0.0 0.0 0.00 0.00 0.00 92 1003.9
20260506080819 14 0.0 0.0 0.00 0.00 0.00 92 1003.9
20260506072817 13 0.0 0.0 0.00 0.00 0.00 93 1004.2
20260506071819 13 0.0 0.0 0.00 0.00 0.00 93 1004.1
20260506070821 13 0.0 0.0 0.00 0.00 0.00 93 1004.1
20260506061820 13 0.0 0.0 0.00 0.00 0.00 92 1004.6
20260506060822 12 0.0 0.0 0.00 0.00 0.00 92 1004.6
20260506050824 12 0.0 0.0 0.00 0.00 0.00 91 1005.2
20260506044817 12 0.0 0.0 0.00 0.00 0.00 91 1004.9
20260506043819 12 0.0 0.0 0.00 0.00 0.00 91 1005.4
20260506042821 12 0.0 0.0 0.00 0.00 0.00 91 1005.4
20260506041823 12 0.0 0.0 0.00 0.00 0.00 91 1006.1
20260506040815 12 0.0 0.0 0.00 0.00 0.00 91 1006.1
20260506035836 12 0.0 0.0 0.00 0.00 0.00 91 1005.6
20260506034818 12 0.0 0.0 0.00 0.00 0.00 91 1005.6
20260506033841 12 0.0 0.0 0.00 0.00 0.00 91 1006.1
20260506032843 12 0.0 0.0 0.00 0.00 0.00 91 1006.1
20260506031825 12 0.0 0.0 0.00 0.00 0.00 90 1006.1
20260506030817 12 0.0 0.0 0.00 0.00 0.00 90 1006.1
20260506025820 12 0.0 0.0 0.00 0.00 0.00 90 1006.2
20260506024822 12 0.0 0.0 0.00 0.00 0.00 90 1006.2
20260506023815 12 0.0 0.0 0.00 0.00 0.00 90 1006.3
20260506022818 12 0.0 0.0 0.00 0.00 0.00 90 1006.3
20260506021821 12 0.0 0.0 0.00 0.00 0.00 90 1006.1
20260506020823 12 0.0 0.0 0.00 0.00 0.00 90 1006.1
20260506015825 12 0.0 0.0 0.00 0.00 0.00 90 1006.2
20260506014837 12 0.0 0.0 0.00 0.00 0.00 90 1006.2